Flag for Germany Weather past 2 weeks in Neumünster, Schleswig-Holstein, Germany

Now
64 °F

Overcast.


Feels Like: 64 °F
Forecast: 55 / 64 °F
Wind: 1 mph from South

Location: Itzehoe

Current Time: Sep 1, 2015 at 2:33:02 AM

Latest Report: Sep 1, 2015 at 1:00 AM


Visibility: 2 mi

Pressure: 29.70 "Hg

Humidity: 98%

Dew point: 63 °F

Location of NeumünsterLocation

Historic Weather in Neumünster — Graph

°F

Neumünster temperature yesterday

Maximum temperature yesterday: 79 °F (at 6:00 PM)
Minimum temperature yesterday: 60 °F (at 2:00 AM)
Average temperature yesterday: 68 °F

Past Weeks' High & Low Weather Summary

 TemperatureHumidityPressure
High79 °F (Aug 31, 6:00 PM)100% (Aug 19, 1:00 AM)30.30 "Hg (Aug 19, 1:00 AM)
Low47 °F (Aug 29, 6:00 AM)33% (Aug 22, 3:00 PM)29.59 "Hg (Aug 24, 10:00 PM)
Average64 °F81%29.98 "Hg
* Reported Aug 17 1:00 AM — Sep 1 1:00 AM, Neumünster, Weather by CustomWeather, © 2015

Note: Actual official high and low records may vary slightly from our data, if they occured in-between our weather recording intervals... More about our weather records

Advertising

Neumünster weather history for previous 24 hours

 ConditionsComfort  
Time TempWeatherWind HumidityBarometerVisibility
1:00 AM
Tue, Sep 1
64 °FOvercast.1 mph98%29.70 "Hg2 mi
10:00 PM
Mon, Aug 31
69 °FOvercast.2 mph82%29.71 "Hg11 mi
9:00 PM71 °FClear.3 mph77%29.70 "Hg12 mi
7:00 PM76 °FSunny.5 mph66%29.74 "Hg22 mi
6:00 PM79 °FSunny.5 mph64%29.77 "Hg11 mi
5:00 PM78 °FSunny.5 mph62%29.79 "Hg10 mi
4:00 PM78 °FSunny.3 mph64%29.83 "Hg18 mi
3:00 PM76 °FSunny.2 mph67%29.86 "Hg11 mi
1:00 PM72 °FSunny.2 mph82%29.91 "Hg4 mi
12:00 PM67 °FPartly sunny.1 mph89%29.94 "Hg2 mi
10:00 AM63 °FPassing clouds.1 mph96%29.95 "Hg2 mi
9:00 AM63 °FPartly sunny.1 mph96%29.94 "Hg2 mi
7:00 AM61 °FPassing clouds.1 mph97%29.95 "Hg2 mi
6:00 AM62 °FPassing clouds.5 mph95%29.94 "Hg2 mi
4:00 AM61 °FOvercast.1 mph95%30.00 "Hg3 mi
3:00 AM61 °FPassing clouds.1 mph94%30.00 "Hg3 mi
2:00 AM60 °FClear.2 mph93%30.01 "Hg4 mi
Weather by CustomWeather, © 2015

See weather overviewHow to use our weather pages